Altus AFB, OK

10:22 PM CDT on October 23, 2019 (GMT -0500)
Altus Air Force Base

Weather History for KLTS - August, 2019

Change the Weather History Date:

Monday, August 12, 2019

  Actual Average Record
Temperature  
Mean Temperature 88 °F -  
Max Temperature 105 °F 93 °F 105 °F (1999)
Min Temperature 71 °F 70 °F 62 °F (2014)
Cooling Degree Days 23    
Growing Degree Days 38 (Base 50)    
Moisture  
Dew Point 62 °F    
Average Humidity 47    
Maximum Humidity 77    
Minimum Humidity 19    
Precipitation  
Precipitation 0.00 in - - ()
Sea Level Pressure  
Sea Level Pressure 29.82 in    
Wind  
Wind Speed 9 mph (SSE)    
Max Wind Speed 16 mph    
Max Gust Speed 23 mph    
Visibility 10 miles    
Events      
Averages and records for this station are not official NWS values.
T = Trace of Precipitation, MM = Missing Value Source: NWS Daily Summary

Daily Weather History Graph

Daily Weather History Graph

Search for Another Location

Airport or City:

Astronomy

Aug. 12, 2019 Rise Set
Actual Time 6:55 AM CDT 8:28 PM CDT
Civil Twilight 6:28 AM CDT 8:55 PM CDT
Nautical Twilight 5:56 AM CDT 9:27 PM CDT
Astronomical Twilight 5:22 AM CDT 10:01 PM CDT
Moon 6:54 PM CDT (8/12) 4:11 AM CDT (8/12)
Length of Visible Light 14h 26m
Length of Day
13h 33m
Waxing Gibbous, 93% of the Moon is Illuminated
Aug 12
Waxing Gibbous
Aug 15
Full
Aug 23
Last Quarter
Aug 30
New
Sep 5
First Quarter

Hourly Weather History & Observations

Time (CDT) Temp. Heat Index Dew Point Humidity Pressure Visibility Wind Dir Wind Speed Gust Speed Precip Events Conditions
12:56 AM 80.8 °F 82.0 °F 62.6 °F 54% 29.84 in 10.0 mi SSE 11.5 mph - N/A   Clear
1:56 AM 79.9 °F - 63.3 °F 57% 29.83 in 10.0 mi South 8.1 mph - N/A   Clear
2:56 AM 75.4 °F - 63.1 °F 66% 29.83 in 10.0 mi South 4.6 mph - N/A   Clear
3:56 AM 77.4 °F - 63.7 °F 63% 29.82 in 10.0 mi Calm Calm - N/A   Clear
4:56 AM 71.6 °F - 63.7 °F 76% 29.83 in 10.0 mi ESE 5.8 mph - N/A   Clear
5:56 AM 72.5 °F - 63.7 °F 74% 29.83 in 10.0 mi ESE 6.9 mph - N/A   Clear
6:56 AM 71.1 °F - 63.5 °F 77% 29.84 in 10.0 mi SSE 4.6 mph - N/A   Clear
7:56 AM 74.7 °F - 64.9 °F 72% 29.85 in 10.0 mi SSE 4.6 mph - N/A   Clear
8:56 AM 80.8 °F 82.5 °F 64.6 °F 58% 29.85 in 10.0 mi South 5.8 mph - N/A   Clear
9:56 AM 89.1 °F 89.6 °F 62.2 °F 41% 29.85 in 10.0 mi SSW 10.4 mph - N/A   Clear
10:56 AM 94.3 °F 94.9 °F 61.5 °F 34% 29.86 in 10.0 mi SSW 9.2 mph - N/A   Clear
11:56 AM 97.5 °F 97.7 °F 59.9 °F 29% 29.85 in 10.0 mi South 9.2 mph - N/A   Clear
12:56 PM 100.6 °F 101.6 °F 60.4 °F 27% 29.83 in 10.0 mi SSW 10.4 mph - N/A   Clear
1:56 PM 103.3 °F 104.1 °F 60.4 °F 24% 29.81 in 10.0 mi SSE 13.8 mph - N/A   Partly Cloudy
2:56 PM 104.2 °F 104.3 °F 57.7 °F 22% 29.80 in 10.0 mi South 16.1 mph - N/A   Scattered Clouds
3:56 PM 105.1 °F 103.8 °F 54.3 °F 19% 29.77 in 10.0 mi South 15.0 mph 21.9 mph N/A   Clear
4:56 PM 104.5 °F 104.2 °F 56.7 °F 21% 29.76 in 10.0 mi South 13.8 mph 23.0 mph N/A   Clear
7:56 PM 94.1 °F 95.0 °F 62.2 °F 35% 29.75 in 10.0 mi SSE 9.2 mph - N/A   Clear
9:56 PM 87.8 °F 87.4 °F 59.7 °F 39% 29.78 in 10.0 mi East 11.5 mph 16.1 mph N/A   Partly Cloudy
10:56 PM 86.2 °F 86.8 °F 62.2 °F 45% 29.83 in 10.0 mi NE 15.0 mph - N/A   Mostly Cloudy
11:56 PM 85.5 °F 86.3 °F 63.0 °F 47% 29.84 in 10.0 mi NNE 15.0 mph - N/A   Partly Cloudy